Pian Rosa, Italy

2:10 AM CET on March 24, 2017 (GMT +0100)
Pian Rosa

Weather History for LIMH - January, 2014

Change the Weather History Date:

Tuesday, January 14, 2014

  Actual Average Record
Temperature  
Mean Temperature 7 °F -  
Max Temperature 10 °F 17 °F 28 °F (2007)
Min Temperature 3 °F 6 °F -8 °F (2017)
Degree Days  
Heating Degree Days 58    
Moisture  
Dew Point 9 °F    
Average Humidity 97    
Maximum Humidity 100    
Minimum Humidity 79    
Precipitation  
Precipitation 0.02 in - - ()
Sea Level Pressure  
Sea Level Pressure 29.53 in    
Wind  
Wind Speed 12 mph ()    
Max Wind Speed 24 mph    
Max Gust Speed 29 mph    
Visibility 0.3 miles    
Events Fog , Snow    
Averages and records for this station are not official NWS values.
T = Trace of Precipitation, MM = Missing Value Source: Averaged Metar Reports

Daily Weather History Graph

Daily Weather History Graph

Search for Another Location

Airport or City:

Trip Planner

Search our weather history database for the weather conditions in past years. The results will help you decide how hot, cold, wet, or windy it might be!

Date:

Astronomy

Jan. 14, 2014 Rise Set
Actual Time 8:07 AM CET 5:09 PM CET
Civil Twilight 7:34 AM CET 5:42 PM CET
Nautical Twilight 6:56 AM CET 6:19 PM CET
Astronomical Twilight 6:21 AM CET 6:55 PM CET
Moon 4:02 PM CET (1/14) 6:29 AM CET (1/14)
Length of Visible Light 10h 08m
Length of Day
9h 01m
Waxing Gibbous, 97% of the Moon is Illuminated
Jan 14
Waxing Gibbous
Jan 16
Full
Jan 24
Last Quarter
Jan 30
New
Feb 6
First Quarter

Hourly Weather History & Observations

Time (CET) Temp. Windchill Dew Point Humidity Pressure Visibility Wind Dir Wind Speed Gust Speed Precip Events Conditions
12:00 AM 15 °F - 14 °F 94%  in 0 mi South 9.2 mph - - Snow Light Snow
12:55 AM 14.0 °F 2.9 °F 14.0 °F 100% 29.65 in 0.1 mi SW 8.1 mph - N/A Fog , Snow Light Snow
1:00 AM 15 °F - 14 °F 95%  in 0 mi SW 8.1 mph - - Snow Light Snow
1:55 AM 14.0 °F 1.2 °F 14.0 °F 100% 29.62 in 0.1 mi SSW 10.4 mph 21.9 mph N/A Fog , Snow Light Snow
2:00 AM 15 °F - 14 °F 95%  in 0 mi SSW 10.4 mph - - Snow Light Snow
2:55 AM 15.8 °F -0.2 °F 12.2 °F 86% 29.59 in 0.0 mi South 17.3 mph 28.8 mph N/A Fog , Snow Light Snow
3:00 AM 15 °F - 13 °F 86%  in 0 mi South 17.3 mph - - Snow Light Snow
3:55 AM 15.8 °F 5.1 °F 12.2 °F 86% 29.59 in 0.0 mi South 8.1 mph - N/A Fog , Snow Light Snow
4:00 AM 15 °F - 13 °F 86%  in 0 mi South 8.1 mph - - Snow Light Snow
4:55 AM 14.0 °F 3.9 °F 14.0 °F 100% 29.56 in 0.0 mi SSW 6.9 mph - N/A Fog , Snow Light Snow
5:00 AM 15 °F - 15 °F 98%  in 0 mi SSW 6.9 mph - - Snow Light Snow
5:55 AM 14.0 °F - 12.2 °F 93% 29.53 in 0.0 mi Variable 2.3 mph - N/A Fog , Snow Light Snow
6:00 AM 15 °F - 11 °F 79%  in 0 mi 2.3 mph - - Snow Light Snow
6:55 AM 10.4 °F -3.3 °F 10.4 °F 100% 29.50 in 0.1 mi ENE 10.4 mph - N/A Fog , Snow Light Snow
7:00 AM 10 °F - 10 °F 100%  in 0 mi ENE 10.4 mph - - Snow Light Snow
7:55 AM 10.4 °F -4.8 °F 10.4 °F 100% 29.47 in 0.1 mi ENE 12.7 mph - N/A Fog , Snow Light Snow
8:00 AM 10 °F - 10 °F 100%  in 0 mi ENE 12.7 mph - - Snow Light Snow
8:55 AM 10.4 °F -4.8 °F 10.4 °F 100% 29.50 in 0.2 mi ENE 12.7 mph - N/A Fog , Snow Light Snow
9:00 AM 10 °F - 10 °F 100%  in 0 mi ENE 12.7 mph - - Snow Light Snow
9:55 AM 10.4 °F -4.8 °F 10.4 °F 100% 29.47 in 0.1 mi ENE 12.7 mph - N/A Fog , Snow Light Snow
10:00 AM 10 °F - 10 °F 100%  in 0 mi ENE 12.7 mph - - Snow Light Snow
10:55 AM 10.4 °F -6.0 °F 10.4 °F 100% 29.50 in 0.1 mi ENE 15.0 mph - N/A Fog , Snow Light Snow
11:00 AM 10 °F - 10 °F 100%  in 0 mi ENE 15.0 mph - - Snow Light Snow
11:55 AM 10.4 °F -7.2 °F 10.4 °F 100% 29.50 in 0.1 mi NE 17.3 mph - N/A Fog , Snow Light Snow
12:00 PM 10 °F - 10 °F 98%  in 0 mi NE 17.3 mph - - Snow Light Snow
12:55 PM 10.4 °F -6.6 °F 10.4 °F 100% 29.47 in 0.1 mi ENE 16.1 mph - N/A Fog , Snow Light Snow
1:00 PM 10 °F - 10 °F 98%  in 0 mi ENE 16.1 mph - - Snow Light Snow
1:55 PM 10.4 °F -8.2 °F 10.4 °F 100% 29.47 in 0.1 mi NE 19.6 mph - N/A Fog , Snow Light Snow
2:00 PM 10 °F - 10 °F 98%  in 0 mi NE 19.6 mph - - Snow Light Snow
2:55 PM 8.6 °F -8.9 °F 8.6 °F 100% 29.47 in 0.5 mi NE 16.1 mph - N/A Fog Light Freezing Fog
3:00 PM 9 °F - 9 °F 100%  in 0 mi NE 16.1 mph - - Fog Heavy Fog
3:55 PM 6.8 °F -12.9 °F 6.8 °F 100% 29.47 in 0.5 mi NE 19.6 mph - N/A Fog Light Freezing Fog
4:00 PM 8 °F - 8 °F 97%  in 0 mi NE 19.6 mph - - Fog Heavy Fog
4:55 PM 6.8 °F -12.4 °F 6.8 °F 100% 29.50 in 0.5 mi NE 18.4 mph - N/A Fog Light Freezing Fog
5:00 PM 6 °F - 6 °F 100%  in 0 mi NE 18.4 mph - - Fog Heavy Fog
5:55 PM 6.8 °F -14.7 °F 6.8 °F 100% 29.50 in 0.1 mi ENE 24.2 mph - N/A Fog Light Freezing Fog
6:00 PM 7 °F - 7 °F 99%  in 0 mi ENE 24.2 mph - - Fog Heavy Fog
6:55 PM 6.8 °F -13.8 °F 6.8 °F 100% 29.50 in 0.0 mi ENE 21.9 mph - N/A Fog , Snow Light Snow
7:00 PM 7 °F - 7 °F 99%  in 0 mi ENE 21.9 mph - - Snow Light Snow
7:55 PM 5.0 °F -17.1 °F 5.0 °F 100% 29.53 in 0.0 mi ENE 24.2 mph - N/A Fog , Snow Light Snow
8:00 PM 6 °F - 6 °F 98%  in 0 mi ENE 24.2 mph - - Snow Light Snow
8:55 PM 5.0 °F -13.6 °F 5.0 °F 100% 29.56 in 0.1 mi ENE 16.1 mph - N/A Fog , Snow Light Snow
9:00 PM 5 °F - 5 °F 100%  in 0 mi ENE 16.1 mph - - Snow Light Snow
9:55 PM 5.0 °F -13.6 °F 5.0 °F 100% 29.56 in - ENE 16.1 mph - N/A   Clear
10:00 PM 4 °F - 4 °F 100%  in 6 mi ENE 16.1 mph - -   Partly Cloudy
10:55 PM 5.0 °F -14.7 °F 3.2 °F 92% 29.56 in - ENE 18.4 mph - N/A   Clear
11:00 PM 4 °F - 4 °F 98%  in 6 mi ENE 18.4 mph - -  
11:55 PM 3.2 °F -15.9 °F 3.2 °F 100% 29.59 in - ENE 16.1 mph - N/A   Clear